User: anonymous   Login
Location: Caltech
(34.1382°N, 118.1253°W)
Time: 04:35:36
(UTC-08:00)
Language:

SO-50 - Orbit

View from above orbital plane
View from above orbital plane
View from above satellite
View from above satellite

Ground track
Ground track

The orbit data is extracted from the following two-line orbital elements,

1 27607U 02058C   17054.52946120  .00000078  00000-0  31839-4 0  9996
2 27607  64.5551 112.8708 0037626 148.9681 211.3655 14.75286121762340
Epoch (UTC): 23 February 2017 12:42:25
Eccentricity: 0.0037626
inclination: 64.5551°
perigee height: 618 km
apogee height: 670 km
right ascension of ascending node: 112.8708°
argument of perigee: 148.9681°
revolutions per day: 14.75286121
mean anomaly at epoch: 211.3655°
orbit number at epoch: 76234

The dashed part of the orbit path shows where the satellite is in the earth's shadow,  

DLR